RH
61 61 61 59 57 56 57 45 31 31 31 35 30 27 25 23 24 26 26 29 28 30 32 39 60 67 71
58 61 60 58 60 58 56 43 36 27 26 25 23 20 21 24 28 30 34 38 36 40 46 50 60 62 69
61 59 61 63 61 53 47 40 31 28 27 25 23 22 23 26 29 32 36 42 44 45 50 57 65 64 57
62 64 67 65 46 43 42 34 30 25 24 24 24 23 22 23 26 29 33 36 41 42 52 55 61 66 71
73 70 53 43 41 38 33 30 28 27 28 29 28 26 25 24 23 23 25 31 33 40 44 44 53 54 54
58 48 46 39 36 39 36 35 34 35 34 33 30 28 26 25 24 22 22 22 24 29 35 38 41 41 42
49 46 41 46 46 39 42 42 40 37 36 34 32 30 29 28 26 25 25 25 24 24 24 27 33 38 38
49 53 50 53 49 49 48 45 42 38 37 36 34 33 32 32 30 30 30 30 30 30 30 30 30 29 27
52 52 56 52 54 54 51 48 43 41 40 39 38 38 38 37 36 35 36 36 36 36 37 37 36 34 28
61 58 56 59 58 58 58 54 48 45 44 43 44 43 43 42 42 42 41 41 41 40 39 37 32 25 21
58 59 60 58 58 61 62 61 57 54 52 52 51 50 49 49 47 46 45 43 42 39 34 29 25 24 22
59 59 63 60 58 60 64 67 65 63 61 60 58 57 55 53 53 49 48 47 45 39 32 29 26 25 22
58 58 58 59 59 60 64 73 82 79 75 70 65 61 58 55 53 51 51 51 47 39 33 30 30 25 24
56 57 56 56 56 62 81 82 85 81 77 72 68 65 62 60 59 56 55 55 52 42 36 34 33 29 28
51 51 54 62 75 83 83 81 77 75 75 75 72 70 70 69 69 66 64 62 58 48 40 37 37 34 32
61 71 76 80 78 80 81 81 77 75 75 75 77 76 76 75 74 72 69 67 61 50 41 39 36 36 36
66 66 65 69 76 79 85 83 81 79 77 77 77 78 79 82 79 79 75 71 65 53 45 43 38 38 37